IZ5MMH-14 Weather Reports


time (UTC)temp
C
wind
direction
speed
KPH
gust
KPH
rain 1hr
cm
rain 24hr
cm
rain mn
cm
humidity
%
barometer
mb
20260503181009 21 0.0 0.0 0.00 0.00 0.00 63 1018.3
20260503180010 22 0.0 0.0 0.00 0.00 0.00 65 1018.4
20260503175010 21 0.0 0.0 0.00 0.00 0.00 64 1018.2
20260503174010 22 0.0 0.0 0.00 0.00 0.00 61 1018.2
20260503173010 23 0.0 0.0 0.00 0.00 0.00 60 1018.2
20260503172009 23 0.0 0.0 0.00 0.00 0.00 59 1018.2
20260503171009 23 0.0 0.0 0.00 0.00 0.00 59 1018.2
20260503151009 24 0.0 0.0 0.00 0.00 0.00 48 1018.3
20260503131009 25 0.0 0.0 0.00 0.00 0.00 53 1019.7
20260503081009 21 0.0 0.0 0.00 0.00 0.00 75 1020.5
20260503072009 21 0.0 0.0 0.00 0.00 0.00 83 1020.6
20260503071012 20 0.0 0.0 0.00 0.00 0.00 87 1020.8
20260503055009 17 0.0 0.0 0.00 0.00 0.00 89 1020.9
20260503054009 16 0.0 0.0 0.00 0.00 0.00 91 1021.0
20260503053009 16 0.0 0.0 0.00 0.00 0.00 93 1020.9
20260503052009 16 0.0 0.0 0.00 0.00 0.00 94 1020.9
20260503051009 15 0.0 0.0 0.00 0.00 0.00 96 1021.0
20260503050009 15 0.0 0.0 0.00 0.00 0.00 98 1020.9
20260503045009 15 0.0 0.0 0.00 0.00 0.00 98 1020.7
20260503044009 15 0.0 0.0 0.00 0.00 0.00 10 1020.9
20260503043009 15 0.0 0.0 0.00 0.00 0.00 10 1020.8
20260503042009 15 0.0 0.0 0.00 0.00 0.00 10 1020.8
20260503041009 15 0.0 0.0 0.00 0.00 0.00 10 1020.7
20260503040009 15 0.0 0.0 0.00 0.00 0.00 10 1020.7
20260503035009 15 0.0 0.0 0.00 0.00 0.00 10 1020.6
20260503034009 15 0.0 0.0 0.00 0.00 0.00 10 1020.6
20260503033009 15 0.0 0.0 0.00 0.00 0.00 10 1020.5
20260503032009 15 0.0 0.0 0.00 0.00 0.00 10 1020.6
20260503031009 15 0.0 0.0 0.00 0.00 0.00 98 1020.5
20260503030009 15 0.0 0.0 0.00 0.00 0.00 98 1020.6
20260503025009 15 0.0 0.0 0.00 0.00 0.00 10 1020.7
20260503024009 15 0.0 0.0 0.00 0.00 0.00 10 1020.6
20260503023009 15 0.0 0.0 0.00 0.00 0.00 98 1020.6
20260503022009 15 0.0 0.0 0.00 0.00 0.00 96 1020.6
20260503021009 15 0.0 0.0 0.00 0.00 0.00 96 1020.6
20260503020008 15 0.0 0.0 0.00 0.00 0.00 94 1020.6
20260503015009 15 0.0 0.0 0.00 0.00 0.00 92 1020.7
20260503014009 15 0.0 0.0 0.00 0.00 0.00 93 1020.7
20260503013009 15 0.0 0.0 0.00 0.00 0.00 93 1020.8
20260503012009 15 0.0 0.0 0.00 0.00 0.00 95 1020.9
20260503011009 15 0.0 0.0 0.00 0.00 0.00 96 1020.9
20260503010009 15 0.0 0.0 0.00 0.00 0.00 97 1020.9
20260503005009 14 0.0 0.0 0.00 0.00 0.00 96 1020.9
20260503004008 15 0.0 0.0 0.00 0.00 0.00 98 1021.1
20260503003008 15 0.0 0.0 0.00 0.00 0.00 98 1021.1
20260503002009 15 0.0 0.0 0.00 0.00 0.00 98 1021.2
20260503001009 15 0.0 0.0 0.00 0.00 0.00 97 1021.3
20260503000008 15 0.0 0.0 0.00 0.00 0.00 97 1021.4
20260502235008 15 0.0 0.0 0.00 0.00 0.00 97 1021.5
20260502234009 16 0.0 0.0 0.00 0.00 0.00 97 1021.5
20260502233009 16 0.0 0.0 0.00 0.00 0.00 98 1021.5
20260502232009 16 0.0 0.0 0.00 0.00 0.00 99 1021.6
20260502231008 16 0.0 0.0 0.00 0.00 0.00 98 1021.6
20260502230009 16 0.0 0.0 0.00 0.00 0.00 99 1021.6
20260502225008 16 0.0 0.0 0.00 0.00 0.00 98 1021.7
20260502224008 16 0.0 0.0 0.00 0.00 0.00 96 1021.7
20260502223009 17 0.0 0.0 0.00 0.00 0.00 96 1021.7
20260502222009 17 0.0 0.0 0.00 0.00 0.00 96 1021.8
20260502220009 17 0.0 0.0 0.00 0.00 0.00 94 1021.6
20260502215008 17 0.0 0.0 0.00 0.00 0.00 93 1021.6
20260502214008 17 0.0 0.0 0.00 0.00 0.00 94 1021.5
20260502213009 17 0.0 0.0 0.00 0.00 0.00 94 1021.5
20260502212008 17 0.0 0.0 0.00 0.00 0.00 94 1021.5
20260502211008 17 0.0 0.0 0.00 0.00 0.00 93 1021.6
20260502210009 17 0.0 0.0 0.00 0.00 0.00 92 1021.6
20260502205008 17 0.0 0.0 0.00 0.00 0.00 91 1021.6
20260502204008 17 0.0 0.0 0.00 0.00 0.00 90 1021.4
20260502203008 18 0.0 0.0 0.00 0.00 0.00 88 1021.6
20260502202009 18 0.0 0.0 0.00 0.00 0.00 87 1021.7
20260502201009 18 0.0 0.0 0.00 0.00 0.00 85 1021.7
20260502200008 18 0.0 0.0 0.00 0.00 0.00 83 1021.7
20260502195008 19 0.0 0.0 0.00 0.00 0.00 80 1021.7
20260502194008 19 0.0 0.0 0.00 0.00 0.00 78 1021.5
20260502193008 19 0.0 0.0 0.00 0.00 0.00 77 1021.6
20260502191008 19 0.0 0.0 0.00 0.00 0.00 75 1021.6
20260502190008 20 0.0 0.0 0.00 0.00 0.00 74 1021.4
20260502185008 20 0.0 0.0 0.00 0.00 0.00 74 1021.5
20260502184008 20 0.0 0.0 0.00 0.00 0.00 68 1021.3
20260502183008 20 0.0 0.0 0.00 0.00 0.00 69 1021.4
20260502182009 21 0.0 0.0 0.00 0.00 0.00 68 1021.2